CORVUS BC4

Last updated on Sun Jun 21 2026 00:03:50 GMT+0000 (Coordinated Universal Time)

1 43767U 18099K 26171.36386979 .00002950 00000+0 17292-3 0 9991 2 43767 97.4063 214.2513 0007970 2.4848 357.6421 15.12515737412883
UTC large
Height (km)
Speed (km/s)
/
Latitude / Longitude
Inclination (degrees)
Orbital Period (minutes)
Azimuth
Elevation
Range (km)
Doppler Factor

Next 0 passes for location: London (51.5072 / 0.1276)

No passes found over London.
CORVUS BC4